Miscellaneous Local Product
Issued by NWS Hastings, NE

Home | Current Version | Previous Version | Text Only | Print | Product List | Glossary Off
Versions: 1 2 3 4 5 6 7 8 9 10 11 12 13 14 15 16 17 18 19 20 21 22 23 24 25 26 27 28 29 30 31 32 33 34 35 36 37 38 39 40 41 42 43 44 45 46 47 48 49 50

000
AXUS43 KGID 160202
MISGRI

GID CWA HOURLY WEATHER ROUNDUP
NATIONAL WEATHER SERVICE HASTINGS NE
800 PM CST MON DEC 15 2014

NOTE: "FAIR" INDICATES FEW OR NO CLOUDS BELOW 12,000 FEET WITH NO
SIGNIFICANT WEATHER AND/OR OBSTRUCTIONS TO VISIBILITY.

...SOUTH CENTRAL NEBRASKA...

CITY           SKY/WX    TMP DP  RH WIND       PRES   REMARKS
GRAND ISLAND   CLOUDY    26  20  77 N32G43    30.02R WCI   9
HASTINGS       CLOUDY    27  20  75 N31G43    30.00R WCI  10
KEARNEY        CLOUDY    27  19  74 NW38G47   30.02R WCI   9
ORD            CLOUDY    24  20  84 N26G40    30.04R BLWGSNOWWCI   8
YORK           FLURRIES  27  25  93 N23G32    29.94R WCI  12
AURORA         CLOUDY    28  23  81 N37G44    29.98R WCI  11
LEXINGTON      MOCLDY    29  23  79 NW29G38   30.07R WCI  13
HOLDREGE       PTCLDY    26  21  80 N29G40    30.04R HAZE    WCI  10
HEBRON         CLOUDY    30  23  73 N28G35    29.96R WCI  16

...NEBRASKA PANHANDLE...

CITY           SKY/WX    TMP DP  RH WIND       PRES   REMARKS
CHADRON        CLOUDY    25  18  74 CALM      30.24R
ALLIANCE       CLOUDY    23  19  85 N23       30.17R WCI   7
SCOTTSBLUFF    PTCLDY    24  17  74 N15       30.20R WCI  11
SIDNEY         CLEAR     22  17  81 N15       30.19R WCI   9

...WESTERN AND NORTH CENTRAL NEBRASKA...

CITY           SKY/WX    TMP DP  RH WIND       PRES   REMARKS
VALENTINE      MIX PCPN  23  19  85 N23G31    30.17R WCI   7
AINSWORTH      LGT SNOW  23  22  93 NW21G26   30.12R WCI   8
ONEILL         LGT SNOW  25  24  94 NW13      30.05R WCI  14
BROKEN BOW     MIX PCPN  26  23  88 N33G46    30.05R FOG     WCI   9
IMPERIAL       PTCLDY    28  22  78 N21       30.14R WCI  15
NORTH PLATTE   CLOUDY    28  22  78 N21G30    30.13R WCI  15
MCCOOK         CLOUDY    30  23  75 NW23      30.13R WCI  17

...EASTERN NEBRASKA...

CITY           SKY/WX    TMP DP  RH WIND       PRES   REMARKS
NORFOLK        CLOUDY    24  19  81 N32G47    29.96R WCI   6
SO SIOUX CITY  CLOUDY    29  24  82 N20       29.90R WCI  16
TEKAMAH        CLOUDY    31  26  82 N31G40    29.88R WCI  16
COLUMBUS       CLOUDY    27  16  63 N29G39    29.98R WCI  11
ALBION         CLOUDY    26  20  80 N23G35    29.98R WCI  11
OMAHA EPPLEY   FLURRIES  32  29  88 NW31G37   29.85R WCI  17
OFFUTT AFB     LGT RAIN  33  29  86 NW18G30   29.85R WCI  21
MILLARD        RAIN      32  28  86 NW17G37   29.86R WCI  21
LINCOLN        CLOUDY    30  22  72 N30G40    29.92R WCI  15
NEBRASKA CITY  CLOUDY    33  32  99 NW22G35   29.81R FOG     WCI  20
BEATRICE       CLOUDY    30  26  84 NW28G37   29.90R WCI  15
FALLS CITY     CLOUDY    35  31  85 NW22G35   29.81R WCI  23

...NORTHERN KANSAS...

CITY           SKY/WX    TMP DP  RH WIND       PRES   REMARKS
GOODLAND       CLEAR     28  23  81 NW22G30   30.14R WCI  14
HILL CITY      PTCLDY    30  23  75 NW21G32   30.11R WCI  17
NORTON         CLOUDY    28  21  74 NW22      30.09R WCI  15
PHILLIPSBURG   MOCLDY    32  25  74 NW25G32   30.09R WCI  19
SMITH CENTER   MOCLDY    28  21  74 NW30G43   30.04R WCI  13
BELOIT         CLOUDY    32  25  74 NW24G38   30.02R WCI  19
HAYS           CLOUDY    32  18  55 N30G43    30.09R WCI  18
RUSSELL        CLOUDY    32  23  69 NW23G36   30.06R WCI  19
CONCORDIA      CLOUDY    31  24  75 NW21G35   29.98R WCI  18
SALINA         CLOUDY    34  24  67 NW29G38   30.00R WCI  20
TOPEKA         CLOUDY    37  30  75 W23G32    29.87R WCI  26



USA.gov is the U.S. government's official web portal to all federal, state and local government web resources and services.